Year,Month,Day,Hour,Minute,Value (Times are PST for windgust in km/hr)
2016,05,08,00,00,8.10
2016,05,08,00,01,8.10
2016,05,08,00,02,8.10
2016,05,08,00,03,9.60
2016,05,08,00,04,6.40
2016,05,08,00,05,8.10
2016,05,08,00,06,11.30
2016,05,08,00,07,6.40
2016,05,08,00,08,9.60
2016,05,08,00,09,6.40
2016,05,08,00,10,8.10
2016,05,08,00,11,8.10
2016,05,08,00,12,12.90
2016,05,08,00,13,9.60
2016,05,08,00,14,9.60
2016,05,08,00,15,11.30
2016,05,08,00,16,11.30
2016,05,08,00,17,11.30
2016,05,08,00,18,6.40
2016,05,08,00,19,12.90
2016,05,08,00,20,9.60
2016,05,08,00,21,6.40
2016,05,08,00,22,9.60
2016,05,08,00,23,12.90
2016,05,08,00,24,11.30
2016,05,08,00,25,11.30
2016,05,08,00,26,11.30
2016,05,08,00,27,9.60
2016,05,08,00,28,9.60
2016,05,08,00,29,12.90
2016,05,08,00,30,9.60
2016,05,08,00,31,8.10
2016,05,08,00,32,16.10
2016,05,08,00,33,11.30
2016,05,08,00,34,9.60
2016,05,08,00,35,6.40
2016,05,08,00,36,8.10
2016,05,08,00,37,6.40
2016,05,08,00,38,14.50
2016,05,08,00,39,8.10
2016,05,08,00,40,8.10
2016,05,08,00,41,11.30
2016,05,08,00,42,8.10
2016,05,08,00,43,11.30
2016,05,08,00,44,8.10
2016,05,08,00,45,9.60
2016,05,08,00,46,14.50
2016,05,08,00,47,12.90
2016,05,08,00,48,12.90
2016,05,08,00,49,9.60
2016,05,08,00,50,11.30
2016,05,08,00,51,14.50
2016,05,08,00,52,9.60
2016,05,08,00,53,14.50
2016,05,08,00,54,11.30
2016,05,08,00,55,20.90
2016,05,08,00,56,12.90
2016,05,08,00,57,9.60
2016,05,08,00,58,9.60
2016,05,08,00,59,12.90
2016,05,08,01,00,12.90
2016,05,08,01,01,14.50
2016,05,08,01,02,12.90
2016,05,08,01,03,11.30
2016,05,08,01,04,12.90
2016,05,08,01,05,12.90
2016,05,08,01,06,14.50
2016,05,08,01,07,6.40
2016,05,08,01,08,9.60
2016,05,08,01,09,9.60
2016,05,08,01,10,8.10
2016,05,08,01,11,12.90
2016,05,08,01,12,8.10
2016,05,08,01,13,16.10
2016,05,08,01,14,16.10
2016,05,08,01,15,9.60
2016,05,08,01,16,9.60
2016,05,08,01,17,9.60
2016,05,08,01,18,9.60
2016,05,08,01,19,14.50
2016,05,08,01,20,6.40
2016,05,08,01,21,9.60
2016,05,08,01,22,8.10
2016,05,08,01,23,9.60
2016,05,08,01,24,9.60
2016,05,08,01,25,12.90
2016,05,08,01,26,12.90
2016,05,08,01,27,17.70
2016,05,08,01,28,14.50
2016,05,08,01,29,9.60
2016,05,08,01,30,12.90
2016,05,08,01,31,12.90
2016,05,08,01,32,9.60
2016,05,08,01,33,16.10
2016,05,08,01,34,12.90
2016,05,08,01,35,8.10
2016,05,08,01,36,11.30
2016,05,08,01,37,11.30
2016,05,08,01,38,12.90
2016,05,08,01,39,12.90
2016,05,08,01,40,8.10
2016,05,08,01,41,11.30
2016,05,08,01,42,12.90
2016,05,08,01,43,17.70
2016,05,08,01,44,14.50
2016,05,08,01,45,11.30
2016,05,08,01,46,11.30
2016,05,08,01,47,9.60
2016,05,08,01,48,12.90
2016,05,08,01,49,14.50
2016,05,08,01,50,12.90
2016,05,08,01,51,9.60
2016,05,08,01,52,9.60
2016,05,08,01,53,12.90
2016,05,08,01,54,11.30
2016,05,08,01,55,11.30
2016,05,08,01,56,8.10
2016,05,08,01,57,9.60
2016,05,08,01,58,9.60
2016,05,08,01,59,9.60
2016,05,08,02,00,8.10
2016,05,08,02,01,9.60
2016,05,08,02,02,11.30
2016,05,08,02,03,12.90
2016,05,08,02,04,17.70
2016,05,08,02,05,12.90
2016,05,08,02,06,9.60
2016,05,08,02,07,11.30
2016,05,08,02,08,16.10
2016,05,08,02,09,12.90
2016,05,08,02,10,9.60
2016,05,08,02,11,12.90
2016,05,08,02,12,11.30
2016,05,08,02,13,14.50
2016,05,08,02,14,12.90
2016,05,08,02,15,16.10
2016,05,08,02,16,17.70
2016,05,08,02,17,22.50
2016,05,08,02,18,14.50
2016,05,08,02,19,24.20
2016,05,08,02,20,11.30
2016,05,08,02,21,12.90
2016,05,08,02,22,9.60
2016,05,08,02,23,14.50
2016,05,08,02,24,9.60
2016,05,08,02,25,9.60
2016,05,08,02,26,11.30
2016,05,08,02,27,9.60
2016,05,08,02,28,17.70
2016,05,08,02,29,16.10
2016,05,08,02,30,25.70
2016,05,08,02,31,19.30
2016,05,08,02,32,19.30
2016,05,08,02,33,12.90
2016,05,08,02,34,24.20
2016,05,08,02,35,22.50
2016,05,08,02,36,14.50
2016,05,08,02,37,19.30
2016,05,08,02,38,16.10
2016,05,08,02,39,19.30
2016,05,08,02,40,17.70
2016,05,08,02,41,16.10
2016,05,08,02,42,17.70
2016,05,08,02,43,19.30
2016,05,08,02,44,17.70
2016,05,08,02,45,16.10
2016,05,08,02,46,22.50
2016,05,08,02,47,17.70
2016,05,08,02,48,14.50
2016,05,08,02,49,16.10
2016,05,08,02,50,16.10
2016,05,08,02,51,14.50
2016,05,08,02,52,14.50
2016,05,08,02,53,19.30
2016,05,08,02,54,16.10
2016,05,08,02,55,14.50
2016,05,08,02,56,11.30
2016,05,08,02,57,12.90
2016,05,08,02,58,12.90
2016,05,08,02,59,12.90
2016,05,08,03,00,11.30
2016,05,08,03,01,11.30
2016,05,08,03,02,11.30
2016,05,08,03,03,12.90
2016,05,08,03,04,17.70
2016,05,08,03,05,14.50
2016,05,08,03,06,16.10
2016,05,08,03,07,11.30
2016,05,08,03,08,14.50
2016,05,08,03,09,11.30
2016,05,08,03,10,11.30
2016,05,08,03,11,12.90
2016,05,08,03,12,11.30
2016,05,08,03,13,11.30
2016,05,08,03,14,12.90
2016,05,08,03,15,9.60
2016,05,08,03,16,8.10
2016,05,08,03,17,12.90
2016,05,08,03,18,12.90
2016,05,08,03,19,9.60
2016,05,08,03,20,8.10
2016,05,08,03,21,14.50
2016,05,08,03,22,8.10
2016,05,08,03,23,11.30
2016,05,08,03,24,12.90
2016,05,08,03,25,9.60
2016,05,08,03,26,6.40
2016,05,08,03,27,8.10
2016,05,08,03,28,8.10
2016,05,08,03,29,9.60
2016,05,08,03,30,9.60
2016,05,08,03,31,9.60
2016,05,08,03,32,9.60
2016,05,08,03,33,6.40
2016,05,08,03,34,9.60
2016,05,08,03,35,6.40
2016,05,08,03,36,4.80
2016,05,08,03,37,9.60
2016,05,08,03,38,11.30
2016,05,08,03,39,11.30
2016,05,08,03,40,11.30
2016,05,08,03,41,8.10
2016,05,08,03,42,8.10
2016,05,08,03,43,6.40
2016,05,08,03,44,11.30
2016,05,08,03,45,6.40
2016,05,08,03,46,11.30
2016,05,08,03,47,8.10
2016,05,08,03,48,8.10
2016,05,08,03,49,9.60
2016,05,08,03,50,9.60
2016,05,08,03,51,8.10
2016,05,08,03,52,6.40
2016,05,08,03,53,6.40
2016,05,08,03,54,6.40
2016,05,08,03,55,6.40
2016,05,08,03,56,4.80
2016,05,08,03,57,9.60
2016,05,08,03,58,4.80
2016,05,08,03,59,6.40
2016,05,08,04,00,8.10
2016,05,08,04,01,8.10
2016,05,08,04,02,9.60
2016,05,08,04,03,8.10
2016,05,08,04,04,8.10
2016,05,08,04,05,4.80
2016,05,08,04,06,6.40
2016,05,08,04,07,6.40
2016,05,08,04,08,4.80
2016,05,08,04,09,4.80
2016,05,08,04,10,3.20
2016,05,08,04,11,6.40
2016,05,08,04,12,4.80
2016,05,08,04,13,6.40
2016,05,08,04,14,6.40
2016,05,08,04,15,6.40
2016,05,08,04,16,6.40
2016,05,08,04,17,6.40
2016,05,08,04,18,8.10
2016,05,08,04,19,8.10
2016,05,08,04,20,3.20
2016,05,08,04,21,3.20
2016,05,08,04,22,8.10
2016,05,08,04,23,4.80
2016,05,08,04,24,4.80
2016,05,08,04,25,3.20
2016,05,08,04,26,3.20
2016,05,08,04,27,4.80
2016,05,08,04,28,4.80
2016,05,08,04,29,6.40
2016,05,08,04,30,3.20
2016,05,08,04,31,6.40
2016,05,08,04,32,4.80
2016,05,08,04,33,4.80
2016,05,08,04,34,3.20
2016,05,08,04,35,1.60
2016,05,08,04,36,6.40
2016,05,08,04,37,1.60
2016,05,08,04,38,6.40
2016,05,08,04,39,4.80
2016,05,08,04,40,3.20
2016,05,08,04,41,3.20
2016,05,08,04,43,1.60
2016,05,08,04,44,3.20
2016,05,08,04,46,3.20
2016,05,08,04,47,3.20
2016,05,08,04,48,3.20
2016,05,08,04,49,3.20
2016,05,08,04,50,3.20
2016,05,08,04,51,3.20
2016,05,08,04,52,3.20
2016,05,08,04,53,3.20
2016,05,08,04,54,4.80
2016,05,08,04,55,1.60
2016,05,08,04,56,1.60
2016,05,08,04,57,3.20
2016,05,08,04,58,3.20
2016,05,08,04,59,3.20
2016,05,08,05,00,1.60
2016,05,08,05,01,3.20
2016,05,08,05,02,1.60
2016,05,08,05,03,3.20
2016,05,08,05,04,3.20
2016,05,08,05,05,3.20
2016,05,08,05,06,3.20
2016,05,08,05,07,4.80
2016,05,08,05,08,4.80
2016,05,08,05,09,4.80
2016,05,08,05,10,3.20
2016,05,08,05,11,4.80
2016,05,08,05,12,3.20
2016,05,08,05,13,3.20
2016,05,08,05,14,3.20
2016,05,08,05,15,3.20
2016,05,08,05,16,3.20
2016,05,08,05,17,3.20
2016,05,08,05,18,4.80
2016,05,08,05,19,4.80
2016,05,08,05,20,3.20
2016,05,08,05,21,4.80
2016,05,08,05,22,4.80
2016,05,08,05,23,3.20
2016,05,08,05,24,3.20
2016,05,08,05,25,4.80
2016,05,08,05,26,4.80
2016,05,08,05,27,6.40
2016,05,08,05,28,6.40
2016,05,08,05,29,4.80
2016,05,08,05,30,6.40
2016,05,08,05,31,4.80
2016,05,08,05,32,3.20
2016,05,08,05,33,3.20
2016,05,08,05,34,4.80
2016,05,08,05,35,4.80
2016,05,08,05,36,4.80
2016,05,08,05,37,4.80
2016,05,08,05,38,3.20
2016,05,08,05,39,6.40
2016,05,08,05,40,4.80
2016,05,08,05,41,4.80
2016,05,08,05,42,4.80
2016,05,08,05,43,3.20
2016,05,08,05,44,3.20
2016,05,08,05,45,4.80
2016,05,08,05,46,3.20
2016,05,08,05,47,4.80
2016,05,08,05,48,4.80
2016,05,08,05,49,3.20
2016,05,08,05,50,3.20
2016,05,08,05,51,3.20
2016,05,08,05,52,4.80
2016,05,08,05,53,4.80
2016,05,08,05,54,4.80
2016,05,08,05,55,3.20
2016,05,08,05,56,4.80
2016,05,08,05,57,4.80
2016,05,08,05,58,4.80
2016,05,08,05,59,3.20
2016,05,08,06,00,8.10
2016,05,08,06,01,8.10
2016,05,08,06,02,4.80
2016,05,08,06,03,8.10
2016,05,08,06,04,8.10
2016,05,08,06,05,8.10
2016,05,08,06,06,6.40
2016,05,08,06,07,8.10
2016,05,08,06,08,6.40
2016,05,08,06,09,8.10
2016,05,08,06,10,6.40
2016,05,08,06,11,8.10
2016,05,08,06,12,6.40
2016,05,08,06,13,6.40
2016,05,08,06,14,6.40
2016,05,08,06,15,4.80
2016,05,08,06,16,4.80
2016,05,08,06,17,6.40
2016,05,08,06,18,3.20
2016,05,08,06,19,6.40
2016,05,08,06,20,8.10
2016,05,08,06,21,6.40
2016,05,08,06,22,6.40
2016,05,08,06,23,6.40
2016,05,08,06,24,8.10
2016,05,08,06,25,6.40
2016,05,08,06,26,6.40
2016,05,08,06,27,3.20
2016,05,08,06,28,6.40
2016,05,08,06,29,6.40
2016,05,08,06,30,6.40
2016,05,08,06,31,4.80
2016,05,08,06,32,6.40
2016,05,08,06,33,4.80
2016,05,08,06,34,3.20
2016,05,08,06,35,4.80
2016,05,08,06,36,6.40
2016,05,08,06,37,4.80
2016,05,08,06,38,6.40
2016,05,08,06,39,4.80
2016,05,08,06,40,6.40
2016,05,08,06,41,4.80
2016,05,08,06,42,6.40
2016,05,08,06,43,8.10
2016,05,08,06,44,4.80
2016,05,08,06,45,6.40
2016,05,08,06,46,4.80
2016,05,08,06,47,4.80
2016,05,08,06,48,6.40
2016,05,08,06,49,6.40
2016,05,08,06,50,6.40
2016,05,08,06,51,4.80
2016,05,08,06,52,4.80
2016,05,08,06,53,4.80
2016,05,08,06,54,4.80
2016,05,08,06,55,4.80
2016,05,08,06,56,4.80
2016,05,08,06,57,4.80
2016,05,08,06,58,4.80
2016,05,08,06,59,4.80
2016,05,08,07,00,4.80
2016,05,08,07,01,4.80
2016,05,08,07,02,6.40
2016,05,08,07,03,6.40
2016,05,08,07,04,4.80
2016,05,08,07,05,8.10
2016,05,08,07,06,9.60
2016,05,08,07,07,6.40
2016,05,08,07,08,4.80
2016,05,08,07,09,6.40
2016,05,08,07,10,6.40
2016,05,08,07,11,6.40
2016,05,08,07,12,4.80
2016,05,08,07,13,4.80
2016,05,08,07,14,4.80
2016,05,08,07,15,4.80
2016,05,08,07,16,4.80
2016,05,08,07,17,4.80
2016,05,08,07,18,4.80
2016,05,08,07,19,4.80
2016,05,08,07,20,6.40
2016,05,08,07,21,6.40
2016,05,08,07,22,4.80
2016,05,08,07,23,4.80
2016,05,08,07,24,4.80
2016,05,08,07,25,8.10
2016,05,08,07,26,4.80
2016,05,08,07,27,6.40
2016,05,08,07,28,8.10
2016,05,08,07,29,6.40
2016,05,08,07,30,3.20
2016,05,08,07,31,8.10
2016,05,08,07,32,8.10
2016,05,08,07,33,9.60
2016,05,08,07,34,6.40
2016,05,08,07,35,4.80
2016,05,08,07,36,6.40
2016,05,08,07,37,8.10
2016,05,08,07,38,8.10
2016,05,08,07,39,9.60
2016,05,08,07,40,6.40
2016,05,08,07,41,4.80
2016,05,08,07,42,8.10
2016,05,08,07,43,4.80
2016,05,08,07,44,6.40
2016,05,08,07,45,8.10
2016,05,08,07,46,8.10
2016,05,08,07,47,8.10
2016,05,08,07,48,4.80
2016,05,08,07,49,4.80
2016,05,08,07,50,9.60
2016,05,08,07,51,8.10
2016,05,08,07,52,12.90
2016,05,08,07,53,11.30
2016,05,08,07,54,8.10
2016,05,08,07,55,6.40
2016,05,08,07,56,6.40
2016,05,08,07,57,6.40
2016,05,08,07,58,8.10
2016,05,08,07,59,9.60
2016,05,08,08,00,8.10
2016,05,08,08,01,9.60
2016,05,08,08,02,9.60
2016,05,08,08,03,6.40
2016,05,08,08,04,6.40
2016,05,08,08,05,6.40
2016,05,08,08,06,9.60
2016,05,08,08,07,8.10
2016,05,08,08,08,6.40
2016,05,08,08,09,8.10
2016,05,08,08,10,6.40
2016,05,08,08,11,8.10
2016,05,08,08,12,6.40
2016,05,08,08,13,4.80
2016,05,08,08,14,6.40
2016,05,08,08,15,8.10
2016,05,08,08,16,6.40
2016,05,08,08,17,6.40
2016,05,08,08,18,4.80
2016,05,08,08,19,6.40
2016,05,08,08,20,6.40
2016,05,08,08,21,8.10
2016,05,08,08,22,4.80
2016,05,08,08,23,6.40
2016,05,08,08,24,6.40
2016,05,08,08,25,6.40
2016,05,08,08,26,4.80
2016,05,08,08,27,8.10
2016,05,08,08,28,6.40
2016,05,08,08,29,6.40
2016,05,08,08,30,6.40
2016,05,08,08,31,8.10
2016,05,08,08,32,8.10
2016,05,08,08,33,4.80
2016,05,08,08,34,6.40
2016,05,08,08,35,6.40
2016,05,08,08,36,3.20
2016,05,08,08,37,4.80
2016,05,08,08,38,4.80
2016,05,08,08,39,4.80
2016,05,08,08,40,4.80
2016,05,08,08,41,4.80
2016,05,08,08,42,4.80
2016,05,08,08,43,8.10
2016,05,08,08,44,6.40
2016,05,08,08,45,8.10
2016,05,08,08,46,4.80
2016,05,08,08,47,3.20
2016,05,08,08,48,4.80
2016,05,08,08,49,4.80
2016,05,08,08,50,4.80
2016,05,08,08,51,4.80
2016,05,08,08,52,4.80
2016,05,08,08,53,6.40
2016,05,08,08,54,4.80
2016,05,08,08,55,4.80
2016,05,08,08,56,3.20
2016,05,08,08,57,3.20
2016,05,08,08,58,4.80
2016,05,08,08,59,4.80
2016,05,08,09,00,3.20
2016,05,08,09,01,3.20
2016,05,08,09,02,1.60
2016,05,08,09,03,4.80
2016,05,08,09,04,6.40
2016,05,08,09,05,8.10
2016,05,08,09,06,3.20
2016,05,08,09,07,9.60
2016,05,08,09,08,9.60
2016,05,08,09,09,3.20
2016,05,08,09,10,4.80
2016,05,08,09,11,3.20
2016,05,08,09,12,6.40
2016,05,08,09,13,8.10
2016,05,08,09,14,9.60
2016,05,08,09,15,8.10
2016,05,08,09,16,4.80
2016,05,08,09,17,6.40
2016,05,08,09,18,6.40
2016,05,08,09,19,6.40
2016,05,08,09,20,9.60
2016,05,08,09,21,6.40
2016,05,08,09,22,8.10
2016,05,08,09,23,9.60
2016,05,08,09,24,9.60
2016,05,08,09,25,12.90
2016,05,08,09,26,14.50
2016,05,08,09,27,8.10
2016,05,08,09,28,11.30
2016,05,08,09,29,14.50
2016,05,08,09,30,12.90
2016,05,08,09,31,11.30
2016,05,08,09,32,9.60
2016,05,08,09,33,8.10
2016,05,08,09,34,11.30
2016,05,08,09,35,8.10
2016,05,08,09,36,9.60
2016,05,08,09,37,9.60
2016,05,08,09,38,14.50
2016,05,08,09,39,11.30
2016,05,08,09,40,11.30
2016,05,08,09,41,12.90
2016,05,08,09,42,8.10
2016,05,08,09,43,11.30
2016,05,08,09,44,17.70
2016,05,08,09,45,17.70
2016,05,08,09,46,12.90
2016,05,08,09,47,11.30
2016,05,08,09,48,12.90
2016,05,08,09,49,12.90
2016,05,08,09,50,11.30
2016,05,08,09,51,9.60
2016,05,08,09,52,16.10
2016,05,08,09,53,11.30
2016,05,08,09,54,9.60
2016,05,08,09,55,9.60
2016,05,08,09,56,12.90
2016,05,08,09,57,11.30
2016,05,08,09,58,8.10
2016,05,08,09,59,9.60
2016,05,08,10,00,12.90
2016,05,08,10,01,9.60
2016,05,08,10,02,8.10
2016,05,08,10,03,14.50
2016,05,08,10,04,11.30
2016,05,08,10,05,9.60
2016,05,08,10,06,14.50
2016,05,08,10,07,12.90
2016,05,08,10,08,11.30
2016,05,08,10,09,6.40
2016,05,08,10,10,8.10
2016,05,08,10,11,14.50
2016,05,08,10,12,19.30
2016,05,08,10,13,9.60
2016,05,08,10,14,12.90
2016,05,08,10,15,12.90
2016,05,08,10,16,8.10
2016,05,08,10,17,14.50
2016,05,08,10,18,14.50
2016,05,08,10,19,12.90
2016,05,08,10,20,16.10
2016,05,08,10,21,17.70
2016,05,08,10,22,17.70
2016,05,08,10,23,16.10
2016,05,08,10,24,16.10
2016,05,08,10,25,16.10
2016,05,08,10,26,17.70
2016,05,08,10,27,16.10
2016,05,08,10,28,16.10
2016,05,08,10,29,17.70
2016,05,08,10,30,16.10
2016,05,08,10,31,14.50
2016,05,08,10,32,17.70
2016,05,08,10,33,14.50
2016,05,08,10,34,12.90
2016,05,08,10,35,11.30
2016,05,08,10,36,14.50
2016,05,08,10,37,12.90
2016,05,08,10,38,11.30
2016,05,08,10,39,8.10
2016,05,08,10,40,14.50
2016,05,08,10,41,16.10
2016,05,08,10,42,20.90
2016,05,08,10,43,11.30
2016,05,08,10,44,14.50
2016,05,08,10,45,11.30
2016,05,08,10,46,6.40
2016,05,08,10,47,17.70
2016,05,08,10,48,14.50
2016,05,08,10,49,17.70
2016,05,08,10,50,16.10
2016,05,08,10,51,17.70
2016,05,08,10,52,14.50
2016,05,08,10,53,14.50
2016,05,08,10,54,17.70
2016,05,08,10,55,16.10
2016,05,08,10,56,22.50
2016,05,08,10,57,16.10
2016,05,08,10,58,24.20
2016,05,08,10,59,24.20
2016,05,08,11,00,22.50
2016,05,08,11,01,19.30
2016,05,08,11,02,16.10
2016,05,08,11,03,16.10
2016,05,08,11,04,20.90
2016,05,08,11,05,20.90
2016,05,08,11,06,17.70
2016,05,08,11,07,14.50
2016,05,08,11,08,19.30
2016,05,08,11,09,17.70
2016,05,08,11,10,17.70
2016,05,08,11,11,9.60
2016,05,08,11,12,8.10
2016,05,08,11,13,17.70
2016,05,08,11,14,20.90
2016,05,08,11,15,17.70
2016,05,08,11,16,11.30
2016,05,08,11,17,19.30
2016,05,08,11,18,19.30
2016,05,08,11,19,22.50
2016,05,08,11,20,22.50
2016,05,08,11,21,20.90
2016,05,08,11,22,19.30
2016,05,08,11,23,25.70
2016,05,08,11,24,25.70
2016,05,08,11,25,17.70
2016,05,08,11,26,19.30
2016,05,08,11,27,19.30
2016,05,08,11,28,19.30
2016,05,08,11,29,16.10
2016,05,08,11,30,20.90
2016,05,08,11,31,14.50
2016,05,08,11,32,16.10
2016,05,08,11,33,20.90
2016,05,08,11,34,16.10
2016,05,08,11,35,22.50
2016,05,08,11,36,16.10
2016,05,08,11,37,22.50
2016,05,08,11,38,19.30
2016,05,08,11,39,22.50
2016,05,08,11,40,22.50
2016,05,08,11,41,24.20
2016,05,08,11,42,14.50
2016,05,08,11,43,17.70
2016,05,08,11,44,19.30
2016,05,08,11,45,22.50
2016,05,08,11,46,30.60
2016,05,08,11,47,20.90
2016,05,08,11,48,17.70
2016,05,08,11,49,20.90
2016,05,08,11,50,17.70
2016,05,08,11,51,20.90
2016,05,08,11,52,20.90
2016,05,08,11,53,19.30
2016,05,08,11,54,20.90
2016,05,08,11,55,16.10
2016,05,08,11,56,24.20
2016,05,08,11,57,25.70
2016,05,08,11,58,24.20
2016,05,08,11,59,22.50
2016,05,08,12,00,19.30
2016,05,08,12,01,25.70
2016,05,08,12,02,24.20
2016,05,08,12,03,19.30
2016,05,08,12,04,24.20
2016,05,08,12,05,25.70
2016,05,08,12,06,25.70
2016,05,08,12,07,25.70
2016,05,08,12,08,27.40
2016,05,08,12,09,24.20
2016,05,08,12,10,25.70
2016,05,08,12,11,20.90
2016,05,08,12,12,24.20
2016,05,08,12,13,19.30
2016,05,08,12,14,27.40
2016,05,08,12,15,30.60
2016,05,08,12,16,25.70
2016,05,08,12,17,16.10
2016,05,08,12,18,16.10
2016,05,08,12,19,32.20
2016,05,08,12,20,29.00
2016,05,08,12,21,20.90
2016,05,08,12,22,25.70
2016,05,08,12,23,25.70
2016,05,08,12,24,22.50
2016,05,08,12,25,30.60
2016,05,08,12,26,27.40
2016,05,08,12,27,27.40
2016,05,08,12,28,29.00
2016,05,08,12,29,19.30
2016,05,08,12,30,24.20
2016,05,08,12,31,17.70
2016,05,08,12,32,22.50
2016,05,08,12,33,27.40
2016,05,08,12,34,22.50
2016,05,08,12,35,19.30
2016,05,08,12,36,27.40
2016,05,08,12,37,22.50
2016,05,08,12,38,25.70
2016,05,08,12,39,27.40
2016,05,08,12,40,24.20
2016,05,08,12,41,33.80
2016,05,08,12,42,32.20
2016,05,08,12,43,27.40
2016,05,08,12,44,27.40
2016,05,08,12,45,25.70
2016,05,08,12,46,27.40
2016,05,08,12,47,25.70
2016,05,08,12,48,30.60
2016,05,08,12,49,30.60
2016,05,08,12,50,27.40
2016,05,08,12,51,17.70
2016,05,08,12,52,35.40
2016,05,08,12,53,30.60
2016,05,08,12,54,17.70
2016,05,08,12,55,29.00
2016,05,08,12,56,17.70
2016,05,08,12,57,20.90
2016,05,08,12,58,32.20
2016,05,08,12,59,33.80
2016,05,08,13,00,33.80
2016,05,08,13,01,33.80
2016,05,08,13,02,33.80
2016,05,08,13,03,24.20
2016,05,08,13,04,20.90
2016,05,08,13,05,16.10
2016,05,08,13,06,30.60
2016,05,08,13,07,27.40
2016,05,08,13,08,30.60
2016,05,08,13,09,30.60
2016,05,08,13,10,33.80
2016,05,08,13,11,38.60
2016,05,08,13,12,35.40
2016,05,08,13,13,38.60
2016,05,08,13,14,38.60
2016,05,08,13,15,38.60
2016,05,08,13,16,35.40
2016,05,08,13,17,33.80
2016,05,08,13,18,30.60
2016,05,08,13,19,33.80
2016,05,08,13,20,32.20
2016,05,08,13,21,30.60
2016,05,08,13,22,33.80
2016,05,08,13,23,33.80
2016,05,08,13,24,35.40
2016,05,08,13,25,27.40
2016,05,08,13,26,25.70
2016,05,08,13,27,27.40
2016,05,08,13,28,40.20
2016,05,08,13,29,30.60
2016,05,08,13,30,33.80
2016,05,08,13,31,29.00
2016,05,08,13,32,30.60
2016,05,08,13,33,33.80
2016,05,08,13,34,27.40
2016,05,08,13,35,37.00
2016,05,08,13,36,30.60
2016,05,08,13,37,22.50
2016,05,08,13,38,25.70
2016,05,08,13,39,37.00
2016,05,08,13,40,25.70
2016,05,08,13,41,32.20
2016,05,08,13,42,33.80
2016,05,08,13,43,40.20
2016,05,08,13,44,25.70
2016,05,08,13,45,41.80
2016,05,08,13,46,37.00
2016,05,08,13,47,37.00
2016,05,08,13,48,45.10
2016,05,08,13,49,35.40
2016,05,08,13,50,37.00
2016,05,08,13,51,29.00
2016,05,08,13,52,32.20
2016,05,08,13,53,41.80
2016,05,08,13,54,35.40
2016,05,08,13,55,30.60
2016,05,08,13,56,33.80
2016,05,08,13,57,33.80
2016,05,08,13,58,38.60
2016,05,08,13,59,33.80
2016,05,08,14,00,38.60
2016,05,08,14,01,29.00
2016,05,08,14,02,29.00
2016,05,08,14,03,25.70
2016,05,08,14,04,32.20
2016,05,08,14,05,30.60
2016,05,08,14,06,30.60
2016,05,08,14,07,27.40
2016,05,08,14,08,37.00
2016,05,08,14,09,35.40
2016,05,08,14,10,29.00
2016,05,08,14,11,22.50
2016,05,08,14,12,22.50
2016,05,08,14,13,22.50
2016,05,08,14,14,37.00
2016,05,08,14,15,30.60
2016,05,08,14,16,33.80
2016,05,08,14,17,35.40
2016,05,08,14,18,37.00
2016,05,08,14,19,38.60
2016,05,08,14,20,40.20
2016,05,08,14,21,38.60
2016,05,08,14,22,32.20
2016,05,08,14,23,33.80
2016,05,08,14,24,32.20
2016,05,08,14,25,33.80
2016,05,08,14,26,30.60
2016,05,08,14,27,35.40
2016,05,08,14,28,22.50
2016,05,08,14,29,35.40
2016,05,08,14,30,33.80
2016,05,08,14,31,32.20
2016,05,08,14,32,33.80
2016,05,08,14,33,33.80
2016,05,08,14,34,37.00
2016,05,08,14,35,32.20
2016,05,08,14,36,30.60
2016,05,08,14,37,33.80
2016,05,08,14,38,37.00
2016,05,08,14,39,32.20
2016,05,08,14,40,22.50
2016,05,08,14,41,40.20
2016,05,08,14,42,38.60
2016,05,08,14,43,38.60
2016,05,08,14,44,41.80
2016,05,08,14,45,32.20
2016,05,08,14,46,35.40
2016,05,08,14,47,30.60
2016,05,08,14,48,29.00
2016,05,08,14,49,33.80
2016,05,08,14,50,27.40
2016,05,08,14,51,38.60
2016,05,08,14,52,37.00
2016,05,08,14,53,37.00
2016,05,08,14,54,29.00
2016,05,08,14,55,45.10
2016,05,08,14,56,38.60
2016,05,08,14,57,38.60
2016,05,08,14,58,30.60
2016,05,08,14,59,37.00
2016,05,08,15,00,29.00
2016,05,08,15,01,24.20
2016,05,08,15,02,38.60
2016,05,08,15,03,35.40
2016,05,08,15,04,32.20
2016,05,08,15,05,38.60
2016,05,08,15,06,32.20
2016,05,08,15,07,33.80
2016,05,08,15,08,25.70
2016,05,08,15,09,45.10
2016,05,08,15,10,27.40
2016,05,08,15,11,38.60
2016,05,08,15,12,32.20
2016,05,08,15,13,29.00
2016,05,08,15,14,32.20
2016,05,08,15,15,35.40
2016,05,08,15,16,32.20
2016,05,08,15,17,33.80
2016,05,08,15,18,38.60
2016,05,08,15,19,35.40
2016,05,08,15,20,27.40
2016,05,08,15,21,33.80
2016,05,08,15,22,45.10
2016,05,08,15,23,33.80
2016,05,08,15,24,37.00
2016,05,08,15,25,32.20
2016,05,08,15,26,29.00
2016,05,08,15,27,38.60
2016,05,08,15,28,35.40
2016,05,08,15,29,37.00
2016,05,08,15,30,40.20
2016,05,08,15,31,43.50
2016,05,08,15,32,38.60
2016,05,08,15,33,32.20
2016,05,08,15,34,35.40
2016,05,08,15,35,35.40
2016,05,08,15,36,33.80
2016,05,08,15,37,41.80
2016,05,08,15,38,38.60
2016,05,08,15,39,33.80
2016,05,08,15,40,45.10
2016,05,08,15,41,32.20
2016,05,08,15,42,38.60
2016,05,08,15,43,30.60
2016,05,08,15,44,25.70
2016,05,08,15,45,30.60
2016,05,08,15,46,35.40
2016,05,08,15,47,32.20
2016,05,08,15,48,17.70
2016,05,08,15,49,29.00
2016,05,08,15,50,22.50
2016,05,08,15,51,38.60
2016,05,08,15,52,40.20
2016,05,08,15,53,38.60
2016,05,08,15,54,35.40
2016,05,08,15,55,32.20
2016,05,08,15,56,37.00
2016,05,08,15,57,40.20
2016,05,08,15,58,35.40
2016,05,08,15,59,33.80
2016,05,08,16,00,35.40
2016,05,08,16,01,33.80
2016,05,08,16,02,27.40
2016,05,08,16,03,32.20
2016,05,08,16,04,30.60
2016,05,08,16,05,43.50
2016,05,08,16,06,29.00
2016,05,08,16,07,32.20
2016,05,08,16,08,40.20
2016,05,08,16,09,29.00
2016,05,08,16,10,37.00
2016,05,08,16,11,33.80
2016,05,08,16,12,37.00
2016,05,08,16,13,30.60
2016,05,08,16,14,33.80
2016,05,08,16,15,30.60
2016,05,08,16,16,27.40
2016,05,08,16,17,40.20
2016,05,08,16,18,43.50
2016,05,08,16,19,27.40
2016,05,08,16,20,27.40
2016,05,08,16,21,29.00
2016,05,08,16,22,20.90
2016,05,08,16,23,37.00
2016,05,08,16,24,25.70
2016,05,08,16,25,30.60
2016,05,08,16,26,40.20
2016,05,08,16,27,35.40
2016,05,08,16,28,25.70
2016,05,08,16,29,30.60
2016,05,08,16,30,33.80
2016,05,08,16,31,24.20
2016,05,08,16,32,29.00
2016,05,08,16,33,30.60
2016,05,08,16,34,30.60
2016,05,08,16,35,24.20
2016,05,08,16,36,27.40
2016,05,08,16,37,24.20
2016,05,08,16,38,14.50
2016,05,08,16,39,19.30
2016,05,08,16,40,35.40
2016,05,08,16,41,27.40
2016,05,08,16,42,41.80
2016,05,08,16,43,37.00
2016,05,08,16,44,29.00
2016,05,08,16,45,35.40
2016,05,08,16,46,29.00
2016,05,08,16,47,33.80
2016,05,08,16,48,46.70
2016,05,08,16,49,30.60
2016,05,08,16,50,32.20
2016,05,08,16,51,35.40
2016,05,08,16,52,38.60
2016,05,08,16,53,29.00
2016,05,08,16,54,32.20
2016,05,08,16,55,20.90
2016,05,08,16,56,38.60
2016,05,08,16,57,22.50
2016,05,08,16,58,30.60
2016,05,08,16,59,30.60
2016,05,08,17,00,25.70
2016,05,08,17,01,17.70
2016,05,08,17,02,35.40
2016,05,08,17,03,29.00
2016,05,08,17,04,33.80
2016,05,08,17,05,35.40
2016,05,08,17,06,33.80
2016,05,08,17,07,37.00
2016,05,08,17,08,33.80
2016,05,08,17,09,45.10
2016,05,08,17,10,38.60
2016,05,08,17,11,38.60
2016,05,08,17,12,29.00
2016,05,08,17,13,25.70
2016,05,08,17,14,32.20
2016,05,08,17,15,29.00
2016,05,08,17,16,32.20
2016,05,08,17,17,30.60
2016,05,08,17,18,30.60
2016,05,08,17,19,27.40
2016,05,08,17,20,51.50
2016,05,08,17,21,35.40
2016,05,08,17,22,33.80
2016,05,08,17,23,25.70
2016,05,08,17,24,22.50
2016,05,08,17,25,24.20
2016,05,08,17,26,35.40
2016,05,08,17,27,22.50
2016,05,08,17,28,35.40
2016,05,08,17,29,35.40
2016,05,08,17,30,27.40
2016,05,08,17,31,27.40
2016,05,08,17,32,38.60
2016,05,08,17,33,45.10
2016,05,08,17,34,40.20
2016,05,08,17,35,30.60
2016,05,08,17,36,29.00
2016,05,08,17,37,45.10
2016,05,08,17,38,27.40
2016,05,08,17,39,33.80
2016,05,08,17,40,41.80